Year,Month,Day,Hour,Minute,Value (Times are PST for temperature in C)
2012,03,22,12,55,6.80
2012,03,22,12,56,6.80
2012,03,22,12,57,6.80
2012,03,22,12,58,6.80
2012,03,22,12,59,6.80
2012,03,22,13,00,6.80
2012,03,22,13,01,6.80
2012,03,22,13,02,6.90
2012,03,22,13,03,6.90
2012,03,22,13,04,7.10
2012,03,22,13,05,7.20
2012,03,22,13,07,7.20
2012,03,22,13,08,7.20
2012,03,22,13,09,7.20
2012,03,22,13,10,7.30
2012,03,22,13,11,7.20
2012,03,22,13,12,7.20
2012,03,22,13,13,7.20
2012,03,22,13,14,7.20
2012,03,22,13,15,7.20
2012,03,22,13,16,7.20
2012,03,22,13,17,7.20
2012,03,22,13,18,7.30
2012,03,22,13,19,7.40
2012,03,22,13,20,7.60
2012,03,22,13,21,7.60
2012,03,22,13,22,7.70
2012,03,22,13,23,7.70
2012,03,22,13,24,7.70
2012,03,22,13,25,7.70
2012,03,22,13,26,7.70
2012,03,22,13,27,7.70
2012,03,22,13,28,7.70
2012,03,22,13,29,7.80
2012,03,22,13,30,7.80
2012,03,22,13,32,7.90
2012,03,22,13,33,8.00
2012,03,22,13,34,7.90
2012,03,22,13,35,7.80
2012,03,22,13,37,7.80
2012,03,22,13,38,7.70
2012,03,22,13,39,7.60
2012,03,22,13,40,7.50
2012,03,22,13,41,7.40
2012,03,22,13,42,7.40
2012,03,22,13,43,7.50
2012,03,22,13,45,7.60
2012,03,22,13,46,7.60
2012,03,22,13,47,7.50
2012,03,22,13,48,7.50
2012,03,22,13,49,7.50
2012,03,22,13,50,7.50
2012,03,22,13,51,7.40
2012,03,22,13,52,7.50
2012,03,22,13,53,7.60
2012,03,22,13,54,7.70
2012,03,22,13,55,7.70
2012,03,22,13,56,7.70
2012,03,22,13,57,7.80
2012,03,22,13,58,7.80
2012,03,22,13,59,7.80
2012,03,22,14,00,7.70
2012,03,22,14,01,7.70
2012,03,22,14,02,7.70
2012,03,22,14,03,7.60
2012,03,22,14,04,7.60
2012,03,22,14,05,7.60
2012,03,22,14,06,7.50
2012,03,22,14,07,7.50
2012,03,22,14,08,7.40
2012,03,22,14,09,7.40
2012,03,22,14,10,7.40
2012,03,22,14,11,7.40
2012,03,22,14,12,7.40
2012,03,22,14,13,7.60
2012,03,22,14,14,7.60
2012,03,22,14,15,7.70
2012,03,22,14,16,7.70
2012,03,22,14,17,7.80
2012,03,22,14,18,7.80
2012,03,22,14,19,7.80
2012,03,22,14,20,7.80
2012,03,22,14,21,7.90
2012,03,22,14,22,7.90
2012,03,22,14,23,8.10
2012,03,22,14,24,8.10
2012,03,22,14,25,8.10
2012,03,22,14,26,8.20
2012,03,22,14,27,8.20
2012,03,22,14,28,8.10
2012,03,22,14,29,8.10
2012,03,22,14,30,8.10
2012,03,22,14,31,8.00
2012,03,22,14,32,8.00
2012,03,22,14,33,7.90
2012,03,22,14,34,7.90
2012,03,22,14,35,7.90
2012,03,22,14,36,7.80
2012,03,22,14,38,7.80
2012,03,22,14,39,7.70
2012,03,22,14,40,7.70
2012,03,22,14,41,7.70
2012,03,22,14,43,7.70
2012,03,22,14,44,7.80
2012,03,22,14,45,7.80
2012,03,22,14,46,7.80
2012,03,22,14,47,7.80
2012,03,22,14,49,7.80
2012,03,22,14,50,7.80
2012,03,22,14,51,7.90
2012,03,22,14,52,7.90
2012,03,22,14,53,7.90
2012,03,22,14,54,7.90
2012,03,22,14,55,7.90
2012,03,22,14,56,7.90
2012,03,22,14,57,7.90
2012,03,22,14,58,7.90
2012,03,22,14,59,8.00
2012,03,22,15,00,8.10
2012,03,22,15,01,8.10
2012,03,22,15,02,8.20
2012,03,22,15,03,8.20
2012,03,22,15,04,8.20
2012,03,22,15,06,8.20
2012,03,22,15,07,8.20
2012,03,22,15,08,8.20
2012,03,22,15,09,8.20
2012,03,22,15,10,8.20
2012,03,22,15,11,8.20
2012,03,22,15,12,8.20
2012,03,22,15,13,8.20
2012,03,22,15,14,8.20
2012,03,22,15,15,8.20
2012,03,22,15,16,8.20
2012,03,22,15,17,8.30
2012,03,22,15,18,8.30
2012,03,22,15,19,8.20
2012,03,22,15,20,8.20
2012,03,22,15,21,8.20
2012,03,22,15,22,8.20
2012,03,22,15,23,8.30
2012,03,22,15,24,8.30
2012,03,22,15,25,8.30
2012,03,22,15,26,8.30
2012,03,22,15,27,8.30
2012,03,22,15,28,8.30
2012,03,22,15,29,8.30
2012,03,22,15,31,8.30
2012,03,22,15,33,8.30
2012,03,22,15,34,8.30
2012,03,22,15,35,8.30
2012,03,22,15,37,8.30
2012,03,22,15,38,8.30
2012,03,22,15,39,8.20
2012,03,22,15,40,8.20
2012,03,22,15,41,8.20
2012,03,22,15,42,8.20
2012,03,22,15,43,8.20
2012,03,22,15,44,8.20
2012,03,22,15,46,8.20
2012,03,22,15,47,8.20
2012,03,22,15,48,8.20
2012,03,22,15,49,8.20
2012,03,22,15,51,8.20
2012,03,22,15,52,8.20
2012,03,22,15,53,8.20
2012,03,22,15,54,8.20
2012,03,22,15,56,8.20
2012,03,22,15,57,8.10
2012,03,22,15,58,8.10
2012,03,22,16,00,8.20
2012,03,22,16,01,8.20
2012,03,22,16,02,8.20
2012,03,22,16,03,8.20
2012,03,22,16,04,8.20
2012,03,22,16,05,8.20
2012,03,22,16,06,8.20
2012,03,22,16,07,8.20
2012,03,22,16,09,8.20
2012,03,22,16,10,8.20
2012,03,22,16,11,8.20
2012,03,22,16,12,8.20
2012,03,22,16,13,8.20
2012,03,22,16,15,8.20
2012,03,22,16,16,8.20
2012,03,22,16,17,8.20
2012,03,22,16,18,8.20
2012,03,22,16,20,8.20
2012,03,22,16,21,8.20
2012,03,22,16,22,8.30
2012,03,22,16,23,8.30
2012,03,22,16,24,8.30
2012,03,22,16,26,8.40
2012,03,22,16,27,8.40
2012,03,22,16,28,8.40
2012,03,22,16,29,8.30
2012,03,22,16,30,8.30
2012,03,22,16,31,8.30
2012,03,22,16,32,8.30
2012,03,22,16,33,8.20
2012,03,22,16,34,8.20
2012,03,22,16,35,8.20
2012,03,22,16,36,8.20
2012,03,22,16,37,8.20
2012,03,22,16,38,8.20
2012,03,22,16,39,8.20
2012,03,22,16,40,8.20
2012,03,22,16,41,8.20
2012,03,22,16,42,8.20
2012,03,22,16,44,8.20
2012,03,22,16,45,8.20
2012,03,22,16,46,8.20
2012,03,22,16,47,8.20
2012,03,22,16,49,8.20
2012,03,22,16,50,8.20
2012,03,22,16,51,8.20
2012,03,22,16,52,8.20
2012,03,22,16,53,8.20
2012,03,22,16,54,8.20
2012,03,22,16,55,8.20
2012,03,22,16,56,8.10
2012,03,22,16,57,8.10
2012,03,22,16,58,8.10
2012,03,22,16,59,8.10
2012,03,22,17,00,8.10
2012,03,22,17,01,8.10
2012,03,22,17,02,8.10
2012,03,22,17,03,8.10
2012,03,22,17,04,8.20
2012,03,22,17,05,8.20
2012,03,22,17,06,8.20
2012,03,22,17,07,8.20
2012,03,22,17,09,8.20
2012,03,22,17,10,8.20
2012,03,22,17,11,8.20
2012,03,22,17,12,8.20
2012,03,22,17,14,8.10
2012,03,22,17,15,8.10
2012,03,22,17,16,8.10
2012,03,22,17,17,8.10
2012,03,22,17,18,8.10
2012,03,22,17,20,8.10
2012,03,22,17,21,8.10
2012,03,22,17,22,8.10
2012,03,22,17,23,8.10
2012,03,22,17,24,8.10
2012,03,22,17,25,8.10
2012,03,22,17,26,8.10
2012,03,22,17,27,8.10
2012,03,22,17,28,8.10
2012,03,22,17,29,8.10
2012,03,22,17,31,8.10
2012,03,22,17,32,8.10
2012,03,22,17,33,8.10
2012,03,22,17,34,8.10
2012,03,22,17,35,8.10
2012,03,22,17,36,8.10
2012,03,22,17,37,8.10
2012,03,22,17,38,8.10
2012,03,22,17,40,8.10
2012,03,22,17,41,8.10
2012,03,22,17,42,8.00
2012,03,22,17,43,8.00
2012,03,22,17,44,8.00
2012,03,22,17,46,7.90
2012,03,22,17,47,8.00
2012,03,22,17,48,7.90
2012,03,22,17,49,7.90
2012,03,22,17,50,7.90
2012,03,22,17,51,7.90
2012,03,22,17,52,7.90
2012,03,22,17,53,7.90
2012,03,22,17,54,7.90
2012,03,22,17,55,7.90
2012,03,22,17,56,7.90
2012,03,22,17,57,7.90
2012,03,22,17,58,7.90
2012,03,22,17,59,7.90
2012,03,22,18,00,7.90
2012,03,22,18,01,7.90
2012,03,22,18,02,7.80
2012,03,22,18,03,7.80
2012,03,22,18,05,7.80
2012,03,22,18,06,7.80
2012,03,22,18,07,7.80
2012,03,22,18,08,7.80
2012,03,22,18,09,7.80
2012,03,22,18,10,7.80
2012,03,22,18,11,7.80
2012,03,22,18,12,7.80
2012,03,22,18,13,7.80
2012,03,22,18,14,7.80
2012,03,22,18,15,7.80
2012,03,22,18,16,7.80
2012,03,22,18,17,7.80
2012,03,22,18,18,7.80
2012,03,22,18,19,7.80
2012,03,22,18,21,7.80
2012,03,22,18,22,7.70
2012,03,22,18,23,7.70
2012,03,22,18,24,7.70
2012,03,22,18,25,7.70
2012,03,22,18,26,7.70
2012,03,22,18,27,7.70
2012,03,22,18,28,7.70
2012,03,22,18,29,7.70
2012,03,22,18,30,7.60
2012,03,22,18,31,7.70
2012,03,22,18,32,7.60
2012,03,22,18,33,7.60
2012,03,22,18,34,7.60
2012,03,22,18,37,7.60
2012,03,22,18,38,7.60
2012,03,22,18,39,7.60
2012,03,22,18,42,7.60
2012,03,22,18,43,7.60
2012,03,22,18,44,7.60
2012,03,22,18,45,7.60
2012,03,22,18,47,7.60
2012,03,22,18,48,7.60
2012,03,22,18,49,7.60
2012,03,22,18,51,7.60
2012,03,22,18,53,7.60
2012,03,22,18,54,7.60
2012,03,22,18,56,7.50
2012,03,22,18,58,7.60
2012,03,22,18,59,7.50
2012,03,22,19,00,7.50
2012,03,22,19,01,7.50
2012,03,22,19,03,7.50
2012,03,22,19,04,7.50
2012,03,22,19,06,7.50
2012,03,22,19,07,7.50
2012,03,22,19,09,7.50
2012,03,22,19,10,7.50
2012,03,22,19,11,7.50
2012,03,22,19,12,7.50
2012,03,22,19,14,7.50
2012,03,22,19,16,7.50
2012,03,22,19,17,7.40
2012,03,22,19,19,7.50
2012,03,22,19,20,7.40
2012,03,22,19,21,7.40
2012,03,22,19,22,7.40
2012,03,22,19,23,7.40
2012,03,22,19,25,7.40
2012,03,22,19,26,7.40
2012,03,22,19,27,7.40
2012,03,22,19,28,7.40
2012,03,22,19,29,7.40
2012,03,22,19,31,7.40
2012,03,22,19,32,7.30
2012,03,22,19,33,7.30
2012,03,22,19,34,7.30
2012,03,22,19,35,7.30
2012,03,22,19,37,7.30
2012,03,22,19,38,7.30
2012,03,22,19,39,7.20
2012,03,22,19,40,7.20
2012,03,22,19,42,7.20
2012,03,22,19,43,7.20
2012,03,22,19,44,7.20
2012,03,22,19,45,7.20
2012,03,22,19,46,7.20
2012,03,22,19,47,7.10
2012,03,22,19,48,7.10
2012,03,22,19,49,7.10
2012,03,22,19,50,7.10
2012,03,22,19,51,7.10
2012,03,22,19,52,7.10
2012,03,22,19,53,7.10
2012,03,22,19,54,7.10
2012,03,22,19,55,7.10
2012,03,22,19,56,7.10
2012,03,22,19,57,7.00
2012,03,22,19,58,7.00
2012,03,22,19,59,7.00
2012,03,22,20,00,7.00
2012,03,22,20,01,7.00
2012,03,22,20,02,7.00
2012,03,22,20,04,6.90
2012,03,22,20,05,6.90
2012,03,22,20,06,6.90
2012,03,22,20,07,6.90
2012,03,22,20,08,6.90
2012,03,22,20,09,6.90
2012,03,22,20,10,6.90
2012,03,22,20,11,6.90
2012,03,22,20,12,6.90
2012,03,22,20,13,6.90
2012,03,22,20,14,6.90
2012,03,22,20,15,6.90
2012,03,22,20,17,6.80
2012,03,22,20,18,6.80
2012,03,22,20,19,6.80
2012,03,22,20,20,6.80
2012,03,22,20,21,6.80
2012,03,22,20,22,6.80
2012,03,22,20,23,6.80
2012,03,22,20,24,6.80
2012,03,22,20,25,6.80
2012,03,22,20,27,6.80
2012,03,22,20,28,6.80
2012,03,22,20,29,6.70
2012,03,22,20,30,6.70
2012,03,22,20,32,6.70
2012,03,22,20,33,6.70
2012,03,22,20,34,6.70
2012,03,22,20,35,6.70
2012,03,22,20,36,6.70
2012,03,22,20,37,6.70
2012,03,22,20,38,6.70
2012,03,22,20,39,6.70
2012,03,22,20,41,6.60
2012,03,22,20,42,6.60
2012,03,22,20,43,6.60
2012,03,22,20,44,6.60
2012,03,22,20,45,6.60
2012,03,22,20,46,6.60
2012,03,22,20,47,6.60
2012,03,22,20,48,6.60
2012,03,22,20,49,6.50
2012,03,22,20,50,6.50
2012,03,22,20,51,6.50
2012,03,22,20,52,6.50
2012,03,22,20,53,6.50
2012,03,22,20,54,6.50
2012,03,22,20,56,6.50
2012,03,22,20,57,6.60
2012,03,22,20,58,6.60
2012,03,22,20,59,6.60
2012,03,22,21,00,6.60
2012,03,22,21,01,6.60
2012,03,22,21,02,6.60
2012,03,22,21,03,6.60
2012,03,22,21,04,6.70
2012,03,22,21,06,6.60
2012,03,22,21,07,6.60
2012,03,22,21,08,6.60
2012,03,22,21,09,6.60
2012,03,22,21,10,6.60
2012,03,22,21,11,6.60
2012,03,22,21,12,6.60
2012,03,22,21,13,6.50
2012,03,22,21,14,6.50
2012,03,22,21,16,6.50
2012,03,22,21,17,6.40
2012,03,22,21,18,6.40
2012,03,22,21,20,6.40
2012,03,22,21,21,6.40
2012,03,22,21,22,6.40
2012,03,22,21,24,6.40
2012,03,22,21,25,6.40
2012,03,22,21,26,6.40
2012,03,22,21,27,6.40
2012,03,22,21,28,6.30
2012,03,22,21,30,6.30
2012,03,22,21,31,6.30
2012,03,22,21,32,6.30
2012,03,22,21,33,6.30
2012,03,22,21,34,6.30
2012,03,22,21,35,6.30
2012,03,22,21,36,6.30
2012,03,22,21,37,6.30
2012,03,22,21,38,6.30
2012,03,22,21,39,6.30
2012,03,22,21,40,6.30
2012,03,22,21,41,6.30
2012,03,22,21,42,6.30
2012,03,22,21,43,6.30
2012,03,22,21,44,6.30
2012,03,22,21,45,6.30
2012,03,22,21,46,6.30
2012,03,22,21,47,6.30
2012,03,22,21,48,6.30
2012,03,22,21,49,6.20
2012,03,22,21,51,6.20
2012,03,22,21,52,6.20
2012,03,22,21,53,6.30
2012,03,22,21,54,6.20
2012,03,22,21,55,6.20
2012,03,22,21,56,6.20
2012,03,22,21,57,6.20
2012,03,22,21,58,6.20
2012,03,22,21,59,6.20
2012,03,22,22,00,6.20
2012,03,22,22,01,6.20
2012,03,22,22,02,6.20
2012,03,22,22,03,6.20
2012,03,22,22,04,6.20
2012,03,22,22,05,6.20
2012,03,22,22,06,6.20
2012,03,22,22,07,6.20
2012,03,22,22,08,6.20
2012,03,22,22,10,6.20
2012,03,22,22,11,6.20
2012,03,22,22,12,6.20
2012,03,22,22,13,6.20
2012,03,22,22,14,6.20
2012,03,22,22,15,6.20
2012,03,22,22,16,6.10
2012,03,22,22,17,6.10
2012,03,22,22,18,6.10
2012,03,22,22,19,6.10
2012,03,22,22,21,6.10
2012,03,22,22,22,6.10
2012,03,22,22,23,6.10
2012,03,22,22,24,6.10
2012,03,22,22,25,6.10
2012,03,22,22,26,6.10
2012,03,22,22,27,6.10
2012,03,22,22,28,6.10
2012,03,22,22,30,6.10
2012,03,22,22,31,6.10
2012,03,22,22,32,6.10
2012,03,22,22,33,6.10
2012,03,22,22,34,6.10
2012,03,22,22,35,6.10
2012,03,22,22,36,6.00
2012,03,22,22,37,6.00
2012,03,22,22,38,6.00
2012,03,22,22,40,6.00
2012,03,22,22,41,6.00
2012,03,22,22,42,6.00
2012,03,22,22,43,5.90
2012,03,22,22,44,5.90
2012,03,22,22,45,5.90
2012,03,22,22,46,5.90
2012,03,22,22,47,5.90
2012,03,22,22,49,5.90
2012,03,22,22,50,5.90
2012,03,22,22,51,5.90
2012,03,22,22,52,5.90
2012,03,22,22,53,5.90
2012,03,22,22,54,5.80
2012,03,22,22,55,5.80
2012,03,22,22,56,5.80
2012,03,22,22,57,5.80
2012,03,22,22,58,5.80
2012,03,22,22,59,5.80
2012,03,22,23,00,5.80
2012,03,22,23,01,5.80
2012,03,22,23,02,5.80
2012,03,22,23,03,5.80
2012,03,22,23,04,5.80
2012,03,22,23,05,5.80
2012,03,22,23,06,5.80
2012,03,22,23,07,5.70
2012,03,22,23,08,5.70
2012,03,22,23,09,5.70
2012,03,22,23,10,5.70
2012,03,22,23,11,5.70
2012,03,22,23,12,5.70
2012,03,22,23,13,5.70
2012,03,22,23,15,5.70
2012,03,22,23,16,5.70
2012,03,22,23,17,5.70
2012,03,22,23,18,5.70
2012,03,22,23,19,5.60
2012,03,22,23,20,5.60
2012,03,22,23,21,5.60
2012,03,22,23,22,5.60
2012,03,22,23,23,5.60
2012,03,22,23,24,5.60
2012,03,22,23,25,5.60
2012,03,22,23,26,5.60
2012,03,22,23,27,5.60
2012,03,22,23,28,5.60
2012,03,22,23,29,5.60
2012,03,22,23,30,5.60
2012,03,22,23,31,5.60
2012,03,22,23,32,5.60
2012,03,22,23,33,5.60
2012,03,22,23,34,5.60
2012,03,22,23,35,5.60
2012,03,22,23,36,5.60
2012,03,22,23,37,5.60
2012,03,22,23,38,5.60
2012,03,22,23,39,5.50
2012,03,22,23,40,5.50
2012,03,22,23,42,5.50
2012,03,22,23,43,5.50
2012,03,22,23,44,5.50
2012,03,22,23,45,5.50
2012,03,22,23,46,5.40
2012,03,22,23,48,5.50
2012,03,22,23,49,5.40
2012,03,22,23,50,5.40
2012,03,22,23,51,5.40
2012,03,22,23,52,5.40
2012,03,22,23,53,5.40
2012,03,22,23,54,5.30
2012,03,22,23,55,5.30
2012,03,22,23,57,5.30
2012,03,22,23,58,5.30
2012,03,22,23,59,5.30
